• Join FlightAware (Why Join?)
  • Login
  • US Flag GB Flag 
15:23 EDT


 

Airport Tracker/Info


-or-


 

Live Flight TrackerFlight Track Log ✈ JBU1329 ✈ 17-May-2013 ✈ KBOS - KBWI

Flight Track Log - Related Links

Times and Time Zones

All times are in EDT time to prevent confusion due to time zone crossing. See the JBU1329 flight status page for this flight to view local times or setup timezone preferences in your user account.

Time Position Orientation Groundspeed Altitude Reporting Facility
EDT Latitude Longitude Course Direction KTS MPH feet Rate Location/Type
09:24 42.3500 -71.0167 262° West 158 182 700  Level KA90
09:26 42.2578 -71.1750 232° Southwest 245 282 6,600 2,760 Climbing Boston Center
09:27 42.3662 -70.7299 172° South  Level FlightAware Approximate
09:27 42.2339 -71.2567 248° West 266 306 10,000  Level Boston Center
09:28 42.2759 -70.7528 228° Southwest  Level FlightAware Approximate
09:28 42.2058 -71.3722 252° West 289 333 12,300  Level Boston Center
09:29 42.2137 -70.8626 240° Southwest  Level FlightAware Approximate
09:29 42.1897 -71.4539 255° West 314 361 14,700  Level Boston Center
09:30 42.1810 -70.9903 262° West  Level FlightAware Approximate
09:30 42.1619 -71.6083 256° West 320 368 18,000  Level Boston Center
09:31 42.1356 -71.7344 254° West 337 388 20,500 2,460 Climbing Boston Center
09:32 42.1114 -71.8581 255° West 342 394 23,000 2,280 Climbing Boston Center
09:33 42.0764 -71.9758 248° West 342 394 25,100 1,800 Climbing Boston Center
09:34 42.0206 -72.0908 237° Southwest 348 400 26,700 1,500 Climbing Boston Center
09:35 41.9625 -72.2083 236° Southwest 370 426 28,100 1,380 Climbing Boston Center
09:36 41.9044 -72.3314 238° Southwest 381 438 29,500 1,440 Climbing Boston Center
09:37 41.8439 -72.4511 236° Southwest 393 452 31,000 1,200 Climbing Boston Center
09:38 41.7856 -72.5708 237° Southwest 393 452 32,000 480 Climbing Boston Center
09:39 41.7247 -72.6961 237° Southwest 398 458 32,000  Level Boston Center
09:40 41.6619 -72.8236 237° Southwest 403 464 32,000  Level Boston Center
09:41 41.5989 -72.9508 236° Southwest 408 470 32,000  Level Boston Center
09:44 41.4694 -73.2161 237° Southwest 410 472 32,000  Level New York Center
09:45 41.4044 -73.3381 235° Southwest 410 472 32,000  Level New York Center
09:46 41.3411 -73.4656 237° Southwest 410 472 32,000  Level New York Center
09:47 41.2781 -73.5900 236° Southwest 410 472 32,000  Level New York Center
09:48 41.2061 -73.7136 232° Southwest 416 479 32,000  Level New York Center
09:49 41.1344 -73.8317 231° Southwest 421 484 32,000  Level New York Center
09:50 41.0647 -73.9525 233° Southwest 426 490 32,000  Level New York Center
09:51 40.9925 -74.0728 232° Southwest 426 490 32,000 -600 Level New York Center
09:52 40.9164 -74.1897 229° Southwest 431 496 30,800 -1,500 Descending New York Center
09:53 40.8439 -74.3122 232° Southwest 431 496 29,100 -1,440 Descending New York Center
09:54 40.7694 -74.4317 231° Southwest 436 502 28,000 -720 Descending New York Center
09:55 40.6969 -74.5511 231° Southwest 429 494 27,700 -600 Descending New York Center
09:56 40.6283 -74.6731 233° Southwest 429 494 26,900 -840 Descending New York Center
09:57 40.5539 -74.7833 228° Southwest 424 488 26,100 -780 Descending New York Center
09:58 40.4772 -74.8908 227° Southwest 412 474 25,400 -1,140 Descending New York Center
09:59 40.4047 -74.9956 228° Southwest 406 467 23,900 -1,560 Descending New York Center
10:00 40.3300 -75.1025 228° Southwest 401 461 22,400 -1,500 Descending New York Center
10:01 40.2597 -75.2017 227° Southwest 396 456 20,900 -1,500 Descending New York Center
10:02 40.1892 -75.2978 226° Southwest 384 442 19,400 -1,440 Descending New York Center
10:03 40.1189 -75.3908 225° Southwest 377 434 18,000 -720 Descending New York Center
10:04 40.0636 -75.4739 229° Southwest 354 407 18,000  Level New York Center
10:05 39.9864 -75.5772 226° Southwest 359 413 18,000 -360 Level New York Center
10:06 39.9178 -75.6753 228° Southwest 359 413 17,400 -780 Descending New York Center
10:07 39.8614 -75.7767 234° Southwest 359 413 16,500 -1,020 Descending New York Center
10:08 39.8089 -75.8839 238° Southwest 359 413 15,400 -1,680 Descending New York Center
10:09 39.7544 -75.9853 235° Southwest 352 405 13,200 -1,140 Descending New York Center
10:11 39.6500 -76.1833 236° Southwest 282 325 11,900 -780 Descending Potomac TRACON
10:12 39.6000 -76.2667 232° Southwest 284 327 10,900 -1,080 Descending Potomac TRACON
10:13 39.5500 -76.3333 226° Southwest 285 328 9,800 -1,500 Descending Potomac TRACON
10:14 39.4833 -76.3833 210° Southwest 291 335 8,000 -1,740 Descending Potomac TRACON
10:15 39.4167 -76.4500 218° Southwest 281 323 6,400 -1,380 Descending Potomac TRACON
10:16 39.3333 -76.4333 171° South 294 338 5,300 -720 Descending Potomac TRACON
10:17 39.2667 -76.4167 169° South 293 337 5,100 -180 Descending Potomac TRACON
10:18 39.1833 -76.3833 163° South 288 331 5,000 -480 Descending Potomac TRACON
10:19 39.1333 -76.3667 166° South 259 298 4,200 -540 Descending Potomac TRACON
10:20 39.0667 -76.3500 169° South 230 265 4,000 -60 Descending Potomac TRACON
10:21 39.0000 -76.3500 180° South 221 254 4,100  Climbing Potomac TRACON
10:22 38.9500 -76.3833 207° Southwest 205 236 4,100 -60 Level Potomac TRACON
10:23 38.9500 -76.4333 270° West 195 224 4,000 -240 Descending Potomac TRACON
10:24 38.9833 -76.4833 311° West 194 223 3,700 -480 Descending Potomac TRACON
10:25 39.0167 -76.5167 322° Northwest 186 214 3,100 -720 Descending Potomac TRACON